Regional Weather Roundup
Issued by NWS

Home | Current Version | Previous Version | Graphics & Text | Print | Product List | Glossary On
Versions: 1 2 3 4 5 6 7 8 9 10 11 12 13 14 15 16 17 18 19 20 21 22 23 24 25 26 27 28 29 30 31 32 33 34 35 36 37 38 39 40 41 42 43 44 45 46 47 48 49 50
000
ASUS43 KFSD 300202
RWRSD

WEATHER ROUNDUP FOR SOUTH DAKOTA
NATIONAL WEATHER SERVICE SIOUX FALLS SD
900 PM CDT SAT AUG 29 2015

NOTE: "FAIR" INDICATES FEW OR NO CLOUDS BELOW 12,000 FEET WITH NO
SIGNIFICANT WEATHER AND/OR OBSTRUCTIONS TO VISIBILITY.


SDZ001>005-009-010-012>017-300300-
NORTHWEST AND NORTH CENTRAL SOUTH DAKOTA

CITY           SKY/WX    TMP DP  RH WIND       PRES   REMARKS
FAITH            N/A     78  54  43 SE13      29.89
MOBRIDGE       CLEAR     76  69  79 SE9       29.84S
$$

SDZ012>016-024>037-041>051-057-063-072>074-300300-
SOUTHWEST AND SOUTH CENTRAL SOUTH DAKOTA

CITY           SKY/WX    TMP DP  RH WIND       PRES   REMARKS
RAPID CTY ARPT CLEAR     75  51  43 SE6       29.92S
PIERRE         CLEAR     78  65  63 SE8       29.87S
CUSTER         CLEAR     76  35  22 S5        30.12S
ELLSWORTH AFB  CLEAR     78  49  36 S9        29.92S
PHILIP         PTCLDY    77  59  53 SE5       29.88S
PINE RIDGE     CLEAR     82  39  21 S9        29.97S
WINNER         FAIR      77  62  59 SE10      29.94R
$$

SDZ004>011-016>023-039-040-300300-
NORTHEAST SOUTH DAKOTA

CITY           SKY/WX    TMP DP  RH WIND       PRES   REMARKS
ABERDEEN       CLEAR     74  70  87 S13       29.89S
WATERTOWN      CLEAR     69  63  81 S12       29.96R
BROOKINGS      CLEAR     66  63  88 S9        30.00S
$$

SDZ017-020-022-023-036>040-048>070-300300-
SOUTHEAST SOUTH DAKOTA

CITY           SKY/WX    TMP DP  RH WIND       PRES   REMARKS
SIOUX FALLS    MOCLDY    68  64  87 SE9       30.01R
HURON          CLEAR     72  67  84 SE12      29.92S
CHAMBERLAIN    CLEAR     72  67  84 SE6       29.92S
MITCHELL       CLEAR     71  67  87 SE12      29.95S
YANKTON        CLEAR     68  64  88 E6        29.98R
$$

ABBREVIATIONS USED IN REMARKS
   TC - TEMPERATURE IN CELSIUS
  WCI - WIND CHILL INDEX
   HX - HEAT INDEX
  VSB - VISIBILITY



USA.gov is the U.S. government's official web portal to all federal, state and local government web resources and services.